Regional Weather Roundup
Issued by NWS Mobile, AL

Home | Current Version | Previous Version | Text Only | Print | Product List | Glossary On
Versions: 1 2 3 4 5 6 7 8 9 10 11 12 13 14 15 16 17 18 19 20 21 22 23 24 25 26 27 28 29 30 31 32 33 34 35 36 37 38 39 40 41 42 43 44 45 46 47 48 49 50
000
ASUS44 KMOB 220310
RWRMOB
REGIONAL WEATHER ROUNDUP
NATIONAL WEATHER SERVICE MOBILE AL
900 PM CST FRI NOV 21 2014

NOTE: "FAIR" INDICATES FEW OR NO CLOUDS BELOW 12,000 FEET WITH NO
      SIGNIFICANT WEATHER AND/OR OBSTRUCTIONS TO VISIBILITY.

  * THESE STATIONS ARE PART OF THE UNIVERSITY OF SOUTH ALABAMA
    MESONET AND ARE NOT UNDER NWS OR FAA QUALITY CONTROL.

ALZ061>064-220400-
COASTAL ALABAMA

CITY           SKY/WX    TMP DP  RH WIND       PRES   REMARKS
MOBILE REG APT PTCLDY    48  46  93 CALM      30.30S
BROOKLEY FIELD CLEAR     49  48  97 CALM      30.32S
USA CAMPUS*      N/A     48  46  93 CALM      30.32S
DOG RIVER*     NOT AVBL


CITY           SKY/WX    TMP DP  RH WIND       PRES   REMARKS
MOUNT VERNON*    N/A     43  43 100 CALM      30.31S
SARALAND*      NOT AVBL
BAY MINETTE*   NOT AVBL
LOXLEY*          N/A     46  45  93 CALM      30.31S
ROBERTSDALE*     N/A     48  46  93 CALM      30.30S
FAIRHOPE*        N/A     46  46 100 E3        30.30S
ELBERTA*         N/A     46  45  93 N2        30.30S
FOLEY*           N/A     48  43  81 CALM      30.31R
GRAND BAY*     NOT AVBL
DAUPHIN ISLND* NOT AVBL
BON SCOUR NWR* NOT AVBL
GULF SHORES    CLEAR     46  45  98 CALM      30.30S

$$

ALZ051>060-220400-
INTERIOR SOUTHWEST AND SOUTH CENTRAL ALABAMA

CITY           SKY/WX    TMP DP  RH WIND       PRES   REMARKS
GREENVILLE     CLEAR     51  41  68 E3        30.34S
EVERGREEN      CLEAR     45  41  86 CALM      30.33F
CASTLEBERRY*   NOT AVBL
ATMORE*          N/A     48  43  81 E5        30.33R
DIXIE*           N/A     50  43  76 CALM      30.31S
ANDALUSIA/OPP  CLEAR     53  42  66 SE5       30.34S
ANDALUSIA*       N/A     54  43  66 E6        30.32S
FLORALA APT    CLEAR     53  40  61 E5        30.35S
FLORALA*         N/A     48  43  81 CALM      30.31R

$$

FLZ001>006-220400-
WESTERN FLORIDA PANHANDLE

CITY           SKY/WX    TMP DP  RH WIND       PRES   REMARKS
PENSACOLA      CLEAR     57  44  62 NE3       30.31S
NAS PENSACOLA  CLEAR     51  48  89 NE3       30.30S
MILTON         CLEAR     50  42  74 NE5       30.32S
WHTNG S FIELD  CLEAR     55  42  61 NE7       30.32S


CITY           SKY/WX    TMP DP  RH WIND       PRES   REMARKS
WALNUT HILL*   NOT AVBL
JAY*             N/A     55  43  62 E5        30.32S
DUKE FIELD     CLEAR     46  41  84 CALM      30.32S
CRESTVIEW      CLEAR     43  42  97 CALM      30.34S
VALPARAISO     CLEAR     55  43  63 NE8       30.31S
DESTIN         CLEAR     58  46  64 NE5       30.31S

$$

MSZ076-079-220400-
INTERIOR SOUTHEAST MISSISSIPPI

CITY           SKY/WX    TMP DP  RH WIND       PRES   REMARKS
LEAKESVILLE*     N/A     50  43  76 CALM      30.30S
AGRICOLA*      NOT AVBL

$$

MARINE OBSERVATIONS

STATION/POSITION TIME  TEMP    WIND        PRES    WAVE
                       AIR SEA DIR/SP/G            HT/PER
                 (UTC) (F)     (DEG/KT/KT) (MB)    (FT/S)
PASCAGOULA       0300   57      60/  5/  7 1025.4S
PETIT BOIS ISLND 0300   60      70/  8/ 10 1025.7S
GRAND BAY        0200   54      30/  3     1026.0S
KATRINA CUT      0200   58      90/ 10     1026.4R
CEDAR POINT      0200   57      70/  6     1025.7S
E DAUPHIN ISLAND 0156   61      60/  8/  8 1026.0R
MIDDLE BAY LIGHT 0200   56      70/  9       N/A
USCG MOBILE BAY  0300   56 58   30/  2/  2 1024.9F
STATE DOCKS      0300   56 59              1025.7F
MEAHER PARK      0200   56      80/  2     1026.4S
WEEKS BAY        0200   49                   N/A
FORT MORGAN      0300   58      80/ 14/ 15 1025.2S
12 S ORANGE BCH  0300   67 65   80/ 16/ 19 1025.1S   4/ 6
PENSACOLA BAY    0300   58 58  100/  2/  4 1026.6R
64 S DAUPHIN ISL 0241   68 72  100/ 19/ 21 1025.4R   5/ 7
67 S FORT MORGAN 0200          100/ 16       N/A

$$

SELECTED LOCATIONS ACROSS THE REGION

CITY           SKY/WX    TMP DP  RH WIND       PRES   REMARKS
NEW ORLEANS    PTCLDY    60  52  74 E7        30.26F
GULFPORT       CLEAR     54  49  83 E5        30.28F
PASCAGOULA AP  CLEAR     44  43  96 CALM      30.30S
PASCAGOULA*      N/A     52  50  93 CALM      30.29S
HATTIESBURG    CLEAR     48  44  86 CALM      30.30S
LAUREL         CLEAR     50  41  71 CALM      30.30S
MERIDIAN       CLEAR     47  44  90 CALM      30.32R
JACKSON        PTCLDY    53  45  74 E5        30.29R
MONTGOMERY     CLEAR     47  39  74 E5        30.36S
TROY           CLEAR     44  40  85 NE3       30.36F
KINSTON*       NOT AVBL
GENEVA*          N/A     55  39  54 E7        30.36S
ASHFORD*         N/A     54  43  66 E6        30.32S
DOTHAN         CLEAR     53  38  56 NE7       30.38F
PANAMA CITY    CLEAR     50  41  71 NE7       30.31S

$$



USA.gov is the U.S. government's official web portal to all federal, state and local government web resources and services.